When you browse on this site, cookies collect data to enhance your experience and personalize the content and advertising you see.
Visit our Privacy Policy to learn more. By continuing to use the site, you agree to this use of cookies and data.
  • In Latvia
  • List of Countries
  • For 7 days
  • Water Temperature
  • Weather Map
  • Weather Widgets
  • user-avatar
    Login

    Hourly Weather Kotovka

    Today, 24 August, Saturday

    Time Temperature Precipitation Wind Pressure Humidity
    00:00 +15°C° 0 mm 2 mps 748 mmHg 86%
    01:00 +14°C° 0 mm 2 mps 748 mmHg 86%
    02:00 +14°C° 0 mm 2 mps 748 mmHg 87%
    03:00 +14°C° 0 mm 1 mps 748 mmHg 84%
    04:00 +13°C° 0 mm 1 mps 748 mmHg 85%
    05:00 +13°C° 0 mm 1 mps 748 mmHg 86%
    06:00 +13°C° 0 mm 1 mps 747 mmHg 87%
    07:00 +15°C° 0 mm 1 mps 748 mmHg 80%
    08:00 +18°C° 0 mm 1 mps 748 mmHg 74%
    09:00 +17°C° 0 mm 0 mps 748 mmHg 68%
    10:00 +21°C° 0 mm 1 mps 747 mmHg 63%
    11:00 +22°C° 0 mm 1 mps 747 mmHg 58%
    12:00 +23°C° 0 mm 1 mps 747 mmHg 52%
    13:00 +23°C° 0 mm 1 mps 747 mmHg 51%
    14:00 +24°C° 0 mm 2 mps 747 mmHg 49%
    15:00 +24°C° 0 mm 2 mps 746 mmHg 47%
    16:00 +24°C° 0 mm 2 mps 746 mmHg 52%
    17:00 +23°C° 0 mm 2 mps 746 mmHg 57%
    18:00 +21°C° 0 mm 2 mps 745 mmHg 63%
    19:00 +20°C° 0 mm 2 mps 745 mmHg 66%
    20:00 +18°C° 0 mm 2 mps 745 mmHg 69%
    21:00 +17°C° 0 mm 2 mps 745 mmHg 72%
    22:00 +16°C° 0 mm 2 mps 745 mmHg 75%
    23:00 +16°C° 0 mm 2 mps 745 mmHg 77%

    Tomorrow, 25 August, Sunday

    Time Temperature Precipitation Wind Pressure Humidity
    00:00 +16°C° 0 mm 3 mps 745 mmHg 79%
    01:00 +14°C° 0 mm 3 mps 745 mmHg 83%
    02:00 +14°C° 0 mm 3 mps 745 mmHg 86%
    03:00 +14°C° 0 mm 3 mps 745 mmHg 90%
    04:00 +13°C° 0 mm 3 mps 745 mmHg 91%
    05:00 +13°C° 0 mm 3 mps 745 mmHg 93%
    06:00 +13°C° 0 mm 3 mps 745 mmHg 95%
    07:00 +14°C° 0 mm 3 mps 745 mmHg 87%
    08:00 +17°C° 0 mm 3 mps 746 mmHg 80%
    09:00 +18°C° 0 mm 4 mps 746 mmHg 73%
    10:00 +19°C° 0 mm 4 mps 746 mmHg 68%
    11:00 +20°C° 0 mm 4 mps 746 mmHg 63%
    12:00 +21°C° 0 mm 5 mps 746 mmHg 58%
    13:00 +21°C° 0 mm 5 mps 746 mmHg 57%
    14:00 +21°C° 0 mm 4 mps 747 mmHg 57%
    15:00 +21°C° 0 mm 4 mps 747 mmHg 57%
    16:00 +21°C° 0 mm 4 mps 747 mmHg 61%
    17:00 +20°C° 0 mm 3 mps 747 mmHg 66%
    18:00 +20°C° 0 mm 3 mps 747 mmHg 70%
    19:00 +18°C° 0 mm 2 mps 747 mmHg 74%
    20:00 +17°C° 0 mm 2 mps 748 mmHg 78%
    21:00 +16°C° 0 mm 2 mps 748 mmHg 81%
    22:00 +15°C° 0 mm 2 mps 748 mmHg 84%
    23:00 +14°C° 0 mm 2 mps 748 mmHg 86%

    Day after tomorrow, 26 August, Monday

    Time Temperature Precipitation Wind Pressure Humidity
    00:00 +13°C° 0 mm 2 mps 749 mmHg 88%
    01:00 +13°C° 0 mm 2 mps 749 mmHg 89%
    02:00 +12°C° 0 mm 2 mps 749 mmHg 90%
    03:00 +12°C° 0 mm 1 mps 749 mmHg 91%
    04:00 +12°C° 0 mm 1 mps 749 mmHg 92%
    05:00 +11°C° 0 mm 1 mps 749 mmHg 92%
    06:00 +11°C° 0 mm 1 mps 749 mmHg 93%
    07:00 +12°C° 0 mm 0 mps 749 mmHg 86%
    08:00 +14°C° 0 mm 0 mps 749 mmHg 79%
    09:00 +15°C° 0 mm 0 mps 749 mmHg 73%
    10:00 +17°C° 0 mm 0 mps 749 mmHg 67%
    11:00 +18°C° 0 mm 0 mps 749 mmHg 62%
    12:00 +19°C° 0 mm 0 mps 749 mmHg 56%
    13:00 +22°C° 0 mm 1 mps 749 mmHg 54%
    14:00 +22°C° 0 mm 1 mps 749 mmHg 51%
    15:00 +21°C° 0 mm 2 mps 748 mmHg 49%
    16:00 +22°C° 0 mm 1 mps 748 mmHg 52%
    17:00 +22°C° 0 mm 1 mps 747 mmHg 56%
    18:00 +21°C° 0 mm 1 mps 747 mmHg 59%
    19:00 +20°C° 0 mm 1 mps 746 mmHg 62%
    20:00 +19°C° 0 mm 1 mps 746 mmHg 65%
    21:00 +16°C° 0 mm 1 mps 746 mmHg 68%
    22:00 +16°C° 0 mm 2 mps 746 mmHg 70%
    23:00 +15°C° 0 mm 2 mps 746 mmHg 73%

    27 August, Tuesday

    Time Temperature Precipitation Wind Pressure Humidity
    00:00 +15°C° 0 mm 2 mps 746 mmHg 76%
    01:00 +14°C° 0 mm 3 mps 745 mmHg 77%
    02:00 +13°C° 0 mm 3 mps 745 mmHg 79%
    03:00 +13°C° 0 mm 3 mps 744 mmHg 81%
    04:00 +13°C° 0 mm 3 mps 744 mmHg 82%
    05:00 +13°C° 0 mm 3 mps 744 mmHg 84%
    06:00 +12°C° 0 mm 3 mps 743 mmHg 86%
    07:00 +14°C° 0 mm 4 mps 743 mmHg 81%
    08:00 +15°C° 0 mm 5 mps 743 mmHg 77%
    09:00 +17°C° 0 mm 5 mps 742 mmHg 73%
    10:00 +19°C° 0 mm 5 mps 742 mmHg 70%
    11:00 +20°C° 0 mm 6 mps 742 mmHg 67%
    12:00 +22°C° 0 mm 6 mps 741 mmHg 64%
    13:00 +22°C° 0.5 mm 6 mps 741 mmHg 64%
    14:00 +22°C° 0.5 mm 6 mps 740 mmHg 65%
    15:00 +22°C° 0.5 mm 7 mps 740 mmHg 65%
    16:00 +21°C° 0.2 mm 6 mps 740 mmHg 67%
    17:00 +20°C° 0.2 mm 5 mps 739 mmHg 69%
    18:00 +19°C° 0.2 mm 5 mps 739 mmHg 70%
    19:00 +17°C° 0 mm 5 mps 739 mmHg 71%
    20:00 +16°C° 0 mm 5 mps 740 mmHg 72%
    21:00 +14°C° 0 mm 5 mps 740 mmHg 73%
    22:00 +13°C° 0 mm 5 mps 740 mmHg 74%
    23:00 +12°C° 0 mm 5 mps 741 mmHg 76%

    28 August, Wednesday

    Time Temperature Precipitation Wind Pressure Humidity
    00:00 +10°C° 0 mm 5 mps 741 mmHg 77%
    01:00 +9°C° 0 mm 5 mps 741 mmHg 78%
    02:00 +7°C° 0 mm 5 mps 741 mmHg 78%
    03:00 +6°C° 0 mm 5 mps 742 mmHg 79%
    04:00 +6°C° 0 mm 4 mps 742 mmHg 78%
    05:00 +5°C° 0 mm 4 mps 742 mmHg 76%
    06:00 +4°C° 0 mm 4 mps 743 mmHg 75%
    07:00 +5°C° 0 mm 5 mps 743 mmHg 73%
    08:00 +5°C° 0 mm 6 mps 743 mmHg 70%
    09:00 +7°C° 0 mm 6 mps 743 mmHg 68%
    10:00 +8°C° 0 mm 6 mps 743 mmHg 64%
    11:00 +9°C° 0 mm 6 mps 743 mmHg 61%
    12:00 +10°C° 0 mm 6 mps 744 mmHg 57%
    13:00 +10°C° 0 mm 6 mps 743 mmHg 56%
    14:00 +11°C° 0 mm 6 mps 743 mmHg 56%
    15:00 +13°C° 0 mm 6 mps 743 mmHg 55%
    16:00 +12°C° 0 mm 5 mps 743 mmHg 57%
    17:00 +12°C° 0 mm 5 mps 743 mmHg 59%
    18:00 +10°C° 0 mm 5 mps 743 mmHg 61%
    19:00 +10°C° 0 mm 4 mps 744 mmHg 66%
    20:00 +9°C° 0 mm 3 mps 744 mmHg 71%
    21:00 +7°C° 0 mm 3 mps 744 mmHg 76%
    22:00 +7°C° 0 mm 3 mps 744 mmHg 77%
    23:00 +6°C° 0 mm 2 mps 744 mmHg 78%

    29 August, Thursday

    Time Temperature Precipitation Wind Pressure Humidity
    00:00 +5°C° 0 mm 2 mps 744 mmHg 79%
    01:00 +5°C° 0 mm 2 mps 744 mmHg 80%
    02:00 +4°C° 0 mm 3 mps 744 mmHg 81%
    03:00 +4°C° 0 mm 3 mps 744 mmHg 82%
    04:00 +3°C° 0 mm 3 mps 744 mmHg 84%
    05:00 +3°C° 0 mm 3 mps 744 mmHg 86%
    06:00 +3°C° 0 mm 3 mps 744 mmHg 88%
    07:00 +5°C° 0 mm 4 mps 744 mmHg 81%
    08:00 +6°C° 0 mm 4 mps 744 mmHg 74%
    09:00 +8°C° 0 mm 5 mps 744 mmHg 67%
    10:00 +8°C° 0 mm 5 mps 744 mmHg 66%
    11:00 +9°C° 0 mm 5 mps 744 mmHg 65%
    12:00 +9°C° 0 mm 6 mps 744 mmHg 64%
    13:00 +10°C° 0 mm 5 mps 743 mmHg 62%
    14:00 +10°C° 0 mm 5 mps 743 mmHg 60%
    15:00 +12°C° 0 mm 5 mps 743 mmHg 58%
    16:00 +12°C° 0 mm 5 mps 743 mmHg 60%
    17:00 +12°C° 0 mm 4 mps 744 mmHg 62%
    18:00 +11°C° 0 mm 4 mps 744 mmHg 64%
    19:00 +10°C° 0 mm 4 mps 744 mmHg 68%
    20:00 +9°C° 0 mm 3 mps 744 mmHg 72%
    21:00 +8°C° 0 mm 3 mps 744 mmHg 76%
    22:00 +7°C° 0 mm 3 mps 744 mmHg 78%
    23:00 +7°C° 0 mm 3 mps 744 mmHg 80%
    Show more